N9902S KHDC-KCXO

Flight info

Callsign N9902S
Flight time 0h 48m
Altitude 40000
Route KUUPR DAS
Aircraft C700/M-SBDGHM1RWXY/LB2

Departure

Time 2026-05-07 00:52
Airport Hammond Northshore Regional Airport (KHDC)

Arrival

Time 2026-05-07 01:40
Airport Conroe-North Houston Regional Airport (KCXO)
Time Latitude Longitude Altitude Speed Heading
2026-05-07 00:46 30.51963 -90.42101 45 ft 0 kts 271°
2026-05-07 00:48 30.51963 -90.42102 45 ft 1 kts 271°
2026-05-07 00:48 30.51981 -90.42098 44 ft 8 kts 41°
2026-05-07 00:49 30.52101 -90.42080 46 ft 26 kts 359°
2026-05-07 00:49 30.52234 -90.42115 46 ft 16 kts 318°
2026-05-07 00:49 30.52327 -90.42206 47 ft 18 kts 320°
2026-05-07 00:49 30.52433 -90.42215 47 ft 17 kts 26°
2026-05-07 00:50 30.52552 -90.42134 46 ft 21 kts 27°
2026-05-07 00:50 30.52700 -90.42059 47 ft 25 kts 24°
2026-05-07 00:50 30.52771 -90.42023 47 ft 1 kts 21°
2026-05-07 00:50 30.52830 -90.41997 47 ft 17 kts 20°
2026-05-07 00:51 30.52828 -90.41923 46 ft 0 kts 177°
2026-05-07 00:51 30.52816 -90.41922 46 ft 13 kts 179°
2026-05-07 00:51 30.52364 -90.41915 48 ft 119 kts 179°
2026-05-07 00:51 30.51291 -90.41895 527 ft 185 kts 179°
2026-05-07 00:52 30.49957 -90.42034 1822 ft 202 kts 202°
2026-05-07 00:52 30.48929 -90.43199 3326 ft 219 kts 237°
2026-05-07 00:52 30.48127 -90.44801 4820 ft 234 kts 239°
2026-05-07 00:52 30.47286 -90.46427 6596 ft 236 kts 239°
2026-05-07 00:53 30.46427 -90.48067 8309 ft 240 kts 239°
2026-05-07 00:53 30.45546 -90.49731 9972 ft 245 kts 239°
2026-05-07 00:53 30.44618 -90.51476 11165 ft 267 kts 239°
2026-05-07 00:53 30.43615 -90.53361 12528 ft 277 kts 238°
2026-05-07 00:54 30.42600 -90.55280 14094 ft 283 kts 239°
2026-05-07 00:54 30.41560 -90.57237 15447 ft 288 kts 239°
2026-05-07 00:54 30.40482 -90.59226 16811 ft 294 kts 239°
2026-05-07 00:54 30.39368 -90.61239 18171 ft 300 kts 239°
2026-05-07 00:55 30.38228 -90.63253 19307 ft 306 kts 239°
2026-05-07 00:55 30.37165 -90.65399 20430 ft 310 kts 251°
2026-05-07 00:55 30.36851 -90.67874 21569 ft 315 kts 266°
2026-05-07 00:55 30.36727 -90.70429 22699 ft 320 kts 265°
2026-05-07 00:56 30.36588 -90.73022 23747 ft 326 kts 266°
2026-05-07 00:56 30.36479 -90.75659 24650 ft 331 kts 266°
2026-05-07 00:56 30.36367 -90.78337 25573 ft 335 kts 266°
2026-05-07 00:56 30.36242 -90.81052 26483 ft 340 kts 266°
2026-05-07 00:57 30.36114 -90.83809 27374 ft 345 kts 266°
2026-05-07 00:57 30.35986 -90.86602 28232 ft 350 kts 266°
2026-05-07 00:57 30.35857 -90.89441 29055 ft 356 kts 266°
2026-05-07 00:57 30.35724 -90.92321 29888 ft 361 kts 266°
2026-05-07 00:58 30.35588 -90.95243 30587 ft 366 kts 266°
2026-05-07 00:58 30.35450 -90.98200 31273 ft 370 kts 266°
2026-05-07 00:58 30.35310 -91.01195 31928 ft 375 kts 267°
2026-05-07 00:58 30.35168 -91.04226 32535 ft 380 kts 267°
2026-05-07 00:59 30.34876 -91.10367 33974 ft 381 kts 267°
2026-05-07 00:59 30.34730 -91.13423 34703 ft 379 kts 266°
2026-05-07 00:59 30.34584 -91.16458 35449 ft 377 kts 266°
2026-05-07 01:00 30.34439 -91.19477 36207 ft 375 kts 266°
2026-05-07 01:00 30.34294 -91.22479 36935 ft 373 kts 266°
2026-05-07 01:00 30.34148 -91.25466 37609 ft 371 kts 265°
2026-05-07 01:00 30.34003 -91.28436 38245 ft 369 kts 265°
2026-05-07 01:01 30.33857 -91.31396 38783 ft 368 kts 265°
2026-05-07 01:01 30.33711 -91.34347 39245 ft 366 kts 265°
2026-05-07 01:01 30.33615 -91.36290 39535 ft 365 kts 265°
2026-05-07 01:01 30.33469 -91.39225 39937 ft 365 kts 265°
2026-05-07 01:02 30.33321 -91.42191 39962 ft 374 kts 265°
2026-05-07 01:02 30.33011 -91.48338 39966 ft 391 kts 265°
2026-05-07 01:03 30.32686 -91.54738 39977 ft 405 kts 265°
2026-05-07 01:03 30.32352 -91.61262 39975 ft 407 kts 265°
2026-05-07 01:04 30.32013 -91.67804 39983 ft 407 kts 265°
2026-05-07 01:04 30.31671 -91.74343 39981 ft 407 kts 265°
2026-05-07 01:05 30.31326 -91.80865 39981 ft 406 kts 265°
2026-05-07 01:05 30.30979 -91.87379 39981 ft 405 kts 265°
2026-05-07 01:06 30.30628 -91.93898 39983 ft 406 kts 265°
2026-05-07 01:06 30.30277 -92.00370 39981 ft 406 kts 265°
2026-05-07 01:07 30.29920 -92.06882 39983 ft 406 kts 265°
2026-05-07 01:07 30.29559 -92.13399 39984 ft 406 kts 265°
2026-05-07 01:08 30.29196 -92.19913 39985 ft 406 kts 265°
2026-05-07 01:08 30.28829 -92.26432 39984 ft 406 kts 265°
2026-05-07 01:09 30.28459 -92.32941 39989 ft 406 kts 265°
2026-05-07 01:09 30.28086 -92.39463 39990 ft 406 kts 265°
2026-05-07 01:10 30.27709 -92.45977 39995 ft 406 kts 265°
2026-05-07 01:10 30.27328 -92.52503 39987 ft 407 kts 265°
2026-05-07 01:11 30.26945 -92.59033 39991 ft 407 kts 264°
2026-05-07 01:11 30.26558 -92.65551 39992 ft 407 kts 264°
2026-05-07 01:12 30.26168 -92.72079 39995 ft 406 kts 264°
2026-05-07 01:12 30.25775 -92.78596 39986 ft 406 kts 264°
2026-05-07 01:13 30.25379 -92.85112 39982 ft 406 kts 264°
2026-05-07 01:13 30.24980 -92.91619 39974 ft 406 kts 264°
2026-05-07 01:14 30.24577 -92.98129 39973 ft 406 kts 264°
2026-05-07 01:14 30.24375 -93.01381 39827 ft 404 kts 264°
2026-05-07 01:14 30.24178 -93.04552 39322 ft 396 kts 264°
2026-05-07 01:14 30.23983 -93.07685 38809 ft 386 kts 264°
2026-05-07 01:15 30.23790 -93.10745 38269 ft 378 kts 263°
2026-05-07 01:15 30.23599 -93.13752 37771 ft 373 kts 264°
2026-05-07 01:15 30.23407 -93.16751 37279 ft 377 kts 264°
2026-05-07 01:15 30.23213 -93.19799 36800 ft 382 kts 264°
2026-05-07 01:16 30.23018 -93.22875 36290 ft 385 kts 264°
2026-05-07 01:16 30.22820 -93.25968 35788 ft 386 kts 264°
2026-05-07 01:16 30.22621 -93.29070 35279 ft 388 kts 264°
2026-05-07 01:16 30.22419 -93.32181 34777 ft 389 kts 264°
2026-05-07 01:17 30.22217 -93.35303 34263 ft 391 kts 264°
2026-05-07 01:17 30.22013 -93.38442 33721 ft 392 kts 264°
2026-05-07 01:17 30.21809 -93.41586 33194 ft 392 kts 264°
2026-05-07 01:17 30.21602 -93.44735 32677 ft 394 kts 264°
2026-05-07 01:18 30.21394 -93.47905 32156 ft 396 kts 264°
2026-05-07 01:18 30.21184 -93.51084 31631 ft 397 kts 264°
2026-05-07 01:18 30.20973 -93.54275 31110 ft 399 kts 264°
2026-05-07 01:18 30.20760 -93.57476 30579 ft 401 kts 264°
2026-05-07 01:19 30.20545 -93.60693 30051 ft 402 kts 264°
2026-05-07 01:19 30.20329 -93.63918 29480 ft 401 kts 264°
2026-05-07 01:19 30.20115 -93.67117 28958 ft 398 kts 264°
2026-05-07 01:19 30.19900 -93.70297 28433 ft 396 kts 263°
2026-05-07 01:20 30.19686 -93.73455 27915 ft 393 kts 263°
2026-05-07 01:20 30.19473 -93.76595 27399 ft 391 kts 263°
2026-05-07 01:20 30.19260 -93.79709 26885 ft 388 kts 263°
2026-05-07 01:20 30.19048 -93.82812 26375 ft 385 kts 263°
2026-05-07 01:21 30.18837 -93.85890 25869 ft 383 kts 263°
2026-05-07 01:21 30.18626 -93.88950 25359 ft 381 kts 263°
2026-05-07 01:21 30.18415 -93.91994 24861 ft 378 kts 263°
2026-05-07 01:21 30.18343 -93.95026 24365 ft 378 kts 267°
2026-05-07 01:22 30.18391 -93.98058 23886 ft 376 kts 268°
2026-05-07 01:22 30.18437 -94.01026 23412 ft 373 kts 267°
2026-05-07 01:22 30.18439 -94.04013 22850 ft 371 kts 266°
2026-05-07 01:22 30.18441 -94.06981 22311 ft 368 kts 267°
2026-05-07 01:23 30.18460 -94.09928 21790 ft 365 kts 267°
2026-05-07 01:23 30.18480 -94.12859 21279 ft 363 kts 267°
2026-05-07 01:23 30.18492 -94.15769 20782 ft 361 kts 267°
2026-05-07 01:23 30.18502 -94.18667 20298 ft 359 kts 267°
2026-05-07 01:24 30.18514 -94.21546 19822 ft 357 kts 267°
2026-05-07 01:24 30.18526 -94.24410 19358 ft 355 kts 267°
2026-05-07 01:24 30.18536 -94.27257 18903 ft 354 kts 267°
2026-05-07 01:24 30.18546 -94.30091 18460 ft 352 kts 267°
2026-05-07 01:25 30.18555 -94.32910 17998 ft 350 kts 267°
2026-05-07 01:25 30.18563 -94.35723 17498 ft 349 kts 266°
2026-05-07 01:25 30.18571 -94.38527 17015 ft 348 kts 267°
2026-05-07 01:25 30.18578 -94.41321 16547 ft 347 kts 267°
2026-05-07 01:26 30.18584 -94.44103 16086 ft 346 kts 267°
2026-05-07 01:26 30.18592 -94.46876 15635 ft 345 kts 267°
2026-05-07 01:26 30.18595 -94.49641 15195 ft 344 kts 267°
2026-05-07 01:26 30.18601 -94.52405 14759 ft 343 kts 267°
2026-05-07 01:27 30.18605 -94.55153 14337 ft 342 kts 267°
2026-05-07 01:27 30.18608 -94.57895 13924 ft 341 kts 267°
2026-05-07 01:27 30.18612 -94.60596 13500 ft 340 kts 267°
2026-05-07 01:27 30.18614 -94.63361 13072 ft 339 kts 267°
2026-05-07 01:28 30.18617 -94.66022 12650 ft 326 kts 267°
2026-05-07 01:28 30.18622 -94.68557 12211 ft 306 kts 267°
2026-05-07 01:28 30.18621 -94.70950 11766 ft 290 kts 267°
2026-05-07 01:28 30.18619 -94.73233 11328 ft 279 kts 268°
2026-05-07 01:29 30.18618 -94.75452 10930 ft 273 kts 268°
2026-05-07 01:29 30.18618 -94.77638 10569 ft 273 kts 268°
2026-05-07 01:29 30.18616 -94.79840 10217 ft 274 kts 268°
2026-05-07 01:29 30.18615 -94.82043 9856 ft 275 kts 268°
2026-05-07 01:30 30.18614 -94.84251 9474 ft 274 kts 268°
2026-05-07 01:30 30.18612 -94.86455 9110 ft 274 kts 268°
2026-05-07 01:30 30.18610 -94.88649 8751 ft 273 kts 268°
2026-05-07 01:30 30.18607 -94.90840 8394 ft 273 kts 269°
2026-05-07 01:31 30.18605 -94.93036 8034 ft 272 kts 269°
2026-05-07 01:31 30.18600 -94.95224 7678 ft 272 kts 269°
2026-05-07 01:31 30.18598 -94.97411 7322 ft 272 kts 269°
2026-05-07 01:31 30.18593 -94.99599 6968 ft 272 kts 269°
2026-05-07 01:32 30.18589 -95.01780 6612 ft 272 kts 269°
2026-05-07 01:32 30.18583 -95.03963 6253 ft 272 kts 269°
2026-05-07 01:32 30.18579 -95.06143 5882 ft 270 kts 269°
2026-05-07 01:32 30.18574 -95.08317 5527 ft 269 kts 269°
2026-05-07 01:33 30.18567 -95.10429 5184 ft 268 kts 269°
2026-05-07 01:33 30.18561 -95.12573 4834 ft 267 kts 269°
2026-05-07 01:33 30.18555 -95.14711 4477 ft 266 kts 269°
2026-05-07 01:33 30.18549 -95.16789 4136 ft 249 kts 269°
2026-05-07 01:34 30.18543 -95.18719 3816 ft 233 kts 269°
2026-05-07 01:34 30.18535 -95.20535 3523 ft 220 kts 269°
2026-05-07 01:34 30.18530 -95.22237 3255 ft 211 kts 269°
2026-05-07 01:34 30.18522 -95.23914 2969 ft 207 kts 270°
2026-05-07 01:35 30.18518 -95.25580 2701 ft 207 kts 272°
2026-05-07 01:35 30.18815 -95.27204 2424 ft 207 kts 295°
2026-05-07 01:35 30.19544 -95.28594 2380 ft 200 kts 311°
2026-05-07 01:35 30.20582 -95.29631 2378 ft 201 kts 328°
2026-05-07 01:36 30.21761 -95.30536 2385 ft 203 kts 326°
2026-05-07 01:36 30.22918 -95.31476 2373 ft 203 kts 326°
2026-05-07 01:36 30.24087 -95.32398 2309 ft 194 kts 328°
2026-05-07 01:36 30.25115 -95.33210 2221 ft 169 kts 327°
2026-05-07 01:37 30.26019 -95.33929 2103 ft 145 kts 328°
2026-05-07 01:37 30.26771 -95.34529 2011 ft 117 kts 329°
2026-05-07 01:37 30.27444 -95.35054 1883 ft 120 kts 331°
2026-05-07 01:37 30.28110 -95.35584 1747 ft 110 kts 332°
2026-05-07 01:38 30.28744 -95.36081 1609 ft 111 kts 333°
2026-05-07 01:38 30.29383 -95.36580 1458 ft 111 kts 332°
2026-05-07 01:38 30.30038 -95.37099 1317 ft 118 kts 330°
2026-05-07 01:38 30.30728 -95.37644 1164 ft 120 kts 329°
2026-05-07 01:39 30.31401 -95.38193 1020 ft 116 kts 329°
2026-05-07 01:39 30.32061 -95.38693 862 ft 112 kts 329°
2026-05-07 01:39 30.32697 -95.39189 671 ft 109 kts 328°
2026-05-07 01:39 30.33324 -95.39704 533 ft 109 kts 328°
2026-05-07 01:40 30.33947 -95.40203 453 ft 112 kts 328°
2026-05-07 01:40 30.34552 -95.40683 280 ft 96 kts 327°
2026-05-07 01:40 30.35028 -95.41057 240 ft 65 kts 327°
2026-05-07 01:40 30.35325 -95.41293 236 ft 42 kts 326°
2026-05-07 01:41 30.35406 -95.41411 234 ft 13 kts 251°
2026-05-07 01:41 30.35397 -95.41440 237 ft 0 kts 250°
2026-05-07 01:41 30.35392 -95.41454 235 ft 8 kts 247°
2026-05-07 01:42 30.35301 -95.41436 236 ft 20 kts 141°
2026-05-07 01:42 30.35145 -95.41306 238 ft 31 kts 146°
2026-05-07 01:42 30.34961 -95.41160 240 ft 34 kts 145°
2026-05-07 01:42 30.34767 -95.41011 242 ft 32 kts 145°
2026-05-07 01:43 30.34618 -95.40887 243 ft 16 kts 150°
2026-05-07 01:43 30.34558 -95.40957 243 ft 15 kts 239°
2026-05-07 01:43 30.34550 -95.41024 242 ft 0 kts 279°
2026-05-07 01:58 30.34550 -95.41030 242 ft 4 kts 268°
2026-05-07 01:59 30.34533 -95.41078 242 ft 5 kts 311°
2026-05-07 01:59 30.34547 -95.41031 242 ft 11 kts 85°
2026-05-07 01:59 30.34587 -95.40915 243 ft 19 kts 56°
2026-05-07 01:59 30.34543 -95.40817 243 ft 17 kts 127°
2026-05-07 02:00 30.34535 -95.40777 243 ft 0 kts 65°
2026-05-07 02:00 30.34539 -95.40769 243 ft 0 kts 65°